Location: UBC Liquid-Mirror Observatory
(49.2876°N, 122.5728°W)
Time: 00:53:19
(UTC-07:00)

Daily predictions for brighter satellites

Satellite Brightness Start Highest point End
(mag) Time Altitude Azimuth Time Altitude Azimuth Time Altitude Azimuth
CZ-4B R/B 2.7 00:04:40 28° ENE 00:04:40 28° ENE 00:07:26 10° N
Cosmos 1503 Rocket 4.1 00:00:10 10° NNW 00:05:22 65° WSW 00:07:08 40° S
Meteor 2-4 Rocket 3.7 00:04:43 10° NNW 00:10:09 72° W 00:12:15 38° S
Cosmos 1315 Rocket 2.6 00:10:39 67° SSE 00:11:02 74° E 00:14:59 10° NNE
Cosmos 1602 Rocket 4.2 00:10:16 10° N 00:14:34 46° ENE 00:15:32 39° ESE
Cosmos 1025 Rocket 3.7 00:10:24 10° NNW 00:14:38 46° W 00:15:50 36° SW
Lacrosse 5 rocket 0.9 00:14:31 77° SSW 00:14:44 83° SE 00:18:27 10° ENE
Okean 2 3.4 00:12:52 10° NNW 00:17:04 80° W 00:17:45 60° SSW
Cosmos 2263 4.4 00:17:25 42° SSE 00:18:46 51° ESE 00:24:14 10° NE
Cosmos 1626 Rocket 4.0 00:14:29 10° N 00:18:52 50° ENE 00:19:47 43° ESE
Cosmos 968 Rocket 4.2 00:15:37 10° NNW 00:20:41 45° ENE 00:22:50 30° ESE
BREEZE-M DEB (TANK) 2.4 00:18:07 10° W 00:20:52 76° SSW 00:28:51 10° ESE
NOSS 3-1 (A) 4.3 00:16:45 10° NW 00:24:00 53° WSW 00:27:27 33° S
Cosmos 1821 Rocket 4.3 00:21:20 27° SSW 00:24:52 62° WNW 00:31:03 10° N
deb Kosmos-1763 4.1 00:21:38 10° NNW 00:25:32 71° WSW 00:25:44 69° SW
Cosmos 1605 Rocket 4.0 00:22:47 37° S 00:25:33 85° E 00:32:00 10° N
Cosmos 1455 Rocket 3.0 00:25:00 60° SSE 00:25:37 72° E 00:29:58 10° NNE
Cosmos 375 4.1 00:22:12 10° NW 00:26:28 90° NE 00:26:52 71° SE
Cosmos 1346 Rocket 2.7 00:23:47 10° N 00:27:41 67° ENE 00:27:58 64° ESE
ALOS 2 2.5 00:29:35 60° SSE 00:30:23 86° ENE 00:34:48 10° NNW
Cosmos 1689 Rocket 2.8 00:31:42 53° NE 00:31:42 53° NE 00:34:30 10° N
SL-8 R/B 3.8 00:30:23 10° W 00:35:03 53° SSW 00:35:03 53° SSW
Cosmos 2285 Rocket 4.0 00:32:00 31° SSW 00:35:18 83° WNW 00:41:46 10° NNE
Cosmos 1934 Rocket 4.2 00:32:30 29° SSW 00:35:33 61° WNW 00:41:35 10° N
Cosmos 1833 4.1 00:31:29 10° NNW 00:37:09 87° ENE 00:39:02 44° SSE
Cosmos 2123 Rocket 4.4 00:32:00 10° NNW 00:38:05 53° W 00:40:42 32° SSW
CZ-2C R/B 4.1 00:37:05 24° ESE 00:39:05 33° ENE 00:43:24 10° N
Cosmos 2173 Rocket 4.5 00:39:02 35° SE 00:41:11 49° E 00:47:17 10° NNE
ISS -2.6 00:39:49 10° WNW 00:43:02 54° N 00:43:21 51° NNE
Cosmos 1400 Rocket 4.3 00:41:41 24° WSW 00:43:14 32° WNW 00:46:59 10° N
Cosmos 1633 3.9 00:43:07 29° W 00:43:54 33° WNW 00:47:17 10° N
Helios 1A Rocket 3.9 00:40:28 10° NNE 00:44:16 33° E 00:44:16 33° E
Cosmos 1153 Rocket 4.5 00:42:05 41° S 00:44:32 83° E 00:50:52 10° N
Cosmos 1536 4.1 00:44:08 27° WSW 00:45:17 33° WNW 00:48:56 10° N
ATLAS 2AS CENTAUR R/B 3.0 00:37:15 10° NW 00:45:28 84° SW 00:49:31 33° SSE
Cosmos 1743 4.4 00:51:18 22° E 00:51:18 22° E 00:54:18 10° NE
Cosmos 2369 Rocket 2.3 00:50:20 31° SW 00:53:04 70° WNW 00:58:42 10° NNE
CZ-2C R/B 3.2 00:50:06 10° NNE 00:55:05 42° E 00:56:10 37° SE
Cosmos 1544 Rocket 4.4 00:54:27 35° WSW 00:55:33 43° WNW 00:59:43 10° N
USA 234 3.2 00:49:41 10° ENE 00:56:16 86° NNW 01:02:49 10° WSW
Cosmos 1818 3.6 00:56:30 50° S 00:57:44 66° ESE 01:03:11 10° NE
Landsat 5 3.4 00:59:29 64° SW 00:59:54 71° WSW 01:04:07 10° NNW
Cosmos 1992 Rocket 4.0 01:00:40 45° SW 01:02:17 79° WNW 01:07:32 10° NNE
Cosmos 2219 3.2 00:57:22 10° NNW 01:03:03 75° ENE 01:05:08 40° SE
Cosmos 1975 2.7 01:03:22 80° SSE 01:03:34 84° E 01:07:39 10° N
Cosmos 2227 Rocket 3.9 00:58:54 10° NNW 01:03:51 29° NE 01:08:46 10° ESE
Cosmos 1066 Rocket 4.1 01:00:29 10° N 01:05:52 78° ENE 01:07:25 48° SSE
Cosmos 1777 Rocket 4.2 01:02:15 10° NNW 01:07:27 65° ENE 01:09:13 40° SE
H-2A R/B 2.7 01:05:30 10° N 01:10:03 74° WNW 01:10:55 56° SW
Cosmos 1656 Rocket 4.2 01:12:17 38° SE 01:13:19 42° ESE 01:18:34 10° NE
GP-B 3.0 01:11:43 10° N 01:16:11 82° W 01:16:47 66° SSW
Cosmos 1500 3.1 01:23:29 86° ENE 01:23:29 86° ENE 01:27:17 10° N
Cosmos 1943 Rocket 2.1 01:22:42 45° SSW 01:24:29 88° WNW 01:30:09 10° NNE
Cosmos 2297 Rocket 3.8 01:20:02 10° NNW 01:25:00 30° NE 01:29:57 10° ESE
Cosmos 2058 Rocket 4.3 01:24:19 29° ESE 01:25:02 30° E 01:28:56 10° NNE
Cosmos 1953 Rocket 3.7 01:21:57 10° N 01:26:16 62° ENE 01:26:57 53° ESE
Lacrosse 5 2.5 01:22:24 10° WSW 01:27:25 56° NNW 01:32:27 10° NE
Cosmos 44 Rocket 3.6 01:23:23 10° NW 01:28:22 51° WSW 01:28:46 50° SW
Cosmos 1515 4.4 01:26:31 10° NNW 01:30:07 43° W 01:30:07 43° W
Cosmos 1825 Rocket 3.5 01:31:28 10° NNW 01:35:57 80° W 01:36:32 66° SSW
Cosmos 1726 Rocket 3.9 01:36:43 47° ESE 01:37:14 50° E 01:41:26 10° NNE
CZ-4B R/B 3.6 01:38:26 16° WNW 01:38:26 16° WNW 01:39:51 10° NW
Gblst 52 Del rocket 4.5 01:32:27 10° WSW 01:39:37 89° NNW 01:45:49 10° ENE
SeaSat 1 3.1 01:37:47 24° ESE 01:40:34 53° NE 01:45:23 10° NNW
SL-24 DEB 4.3 01:41:52 10° N 01:46:41 78° W 01:47:42 55° SSW
Cosmos 1758 Rocket 3.5 01:45:28 10° N 01:49:59 90° N 01:50:44 62° S
Cosmos 2100 Rocket 4.5 01:48:24 33° SW 01:51:05 54° WNW 01:57:19 10° N
Lacrosse 5 rocket 2.9 01:50:56 10° W 01:54:17 30° NNW 01:57:34 10° NE
Cosmos 44 3.4 01:53:57 10° NW 01:59:06 59° WSW 01:59:52 52° SSW
Cosmos 2233 Rocket 4.2 02:01:05 35° SSE 02:03:36 62° E 02:09:39 10° NNE
Cosmos 1898 Rocket 4.3 02:01:57 10° NNW 02:07:10 51° ENE 02:10:56 18° SE
Cosmos 2016 Rocket 4.2 02:05:33 35° SW 02:07:57 57° WNW 02:13:59 10° N
NOSS 3-4 (A) 4.1 02:01:46 10° NW 02:08:35 65° NE 02:15:48 10° SE
NOSS 3-4 (C) 4.1 02:01:52 10° NW 02:08:43 64° NE 02:15:58 10° SE
BREEZE-M DEB (TANK) 3.8 01:56:49 10° WNW 02:13:11 61° SW 02:15:51 27° SE
Cosmos 1570 Rocket 4.0 02:11:47 46° S 02:13:24 78° ESE 02:18:46 10° NNE
PSLV R/B 4.3 02:15:47 47° WSW 02:16:02 48° W 02:20:06 10° NNW
Cosmos 1937 Rocket 4.5 02:11:48 10° NNW 02:16:46 44° ENE 02:21:15 12° SE
CZ-2C R/B 3.7 02:18:10 34° WSW 02:18:56 36° W 02:23:25 10° NNW
NOSS 3-3 (A) 4.0 02:16:12 36° SW 02:19:01 84° SE 02:25:56 10° NE
BREEZE-M DEB (TANK) 3.7 02:19:27 37° SE 02:19:27 37° SE 02:22:20 10° E
NOSS 3-3 (C) 4.0 02:16:17 36° SSW 02:19:07 83° SE 02:26:01 10° NE
Helios 1A Rocket 4.4 02:15:54 10° N 02:19:26 27° WNW 02:20:35 24° W
Cosmos 2228 3.0 02:19:03 54° SSE 02:19:55 74° E 02:24:13 10° NNE
UNK 3.3 02:10:37 10° WSW 02:20:26 80° SSE 02:23:32 10° E
SL-08 R/B 4.2 02:18:16 20° SE 02:21:06 44° ENE 02:25:30 10° N
Cosmos 1340 3.0 02:20:02 10° NNW 02:23:42 49° W 02:23:42 49° W
Cosmos 1743 3.8 02:26:27 31° W 02:26:57 33° WNW 02:30:30 10° N
CZ-2C R/B 3.8 02:30:39 10° N 02:35:16 33° WNW 02:37:42 22° WSW
ATLAS 2AS CENTAUR R/B 4.1 02:29:27 10° WNW 02:35:26 23° WSW 02:36:54 22° WSW
Cosmos 1697 Rocket 4.4 02:34:48 15° SE 02:37:50 23° ESE 02:42:08 10° NE
Cosmos 2369 Rocket 4.5 02:34:21 10° W 02:38:10 18° NW 02:41:59 10° N
USA 234 4.1 02:32:43 10° ENE 02:38:59 50° N 02:45:14 10° W
Cosmos 2082 3.6 02:33:21 10° NNW 02:39:00 76° WSW 02:41:56 29° SSE
Cosmos 1842 4.3 02:42:18 10° NNW 02:45:49 30° W 02:45:59 30° W
Meteor 2-9 Rocket 4.4 02:43:40 35° SSW 02:46:11 67° WNW 02:51:57 10° N
Cosmos 1980 Rocket 4.3 02:43:36 10° SE 02:47:02 17° E 02:50:28 10° ENE
Cosmos 2227 Rocket 2.2 02:42:43 10° NW 02:48:20 62° WSW 02:50:59 31° S
Resurs 1-4 Rocket 4.3 02:46:28 10° NE 02:50:01 18° E 02:53:32 10° SE
Cosmos 1666 3.5 02:50:43 34° W 02:51:19 37° WNW 02:54:52 10° N
Cosmos 1812 Rocket 3.5 02:57:46 38° S 02:59:27 86° E 03:03:57 10° N
CBERS-1 4.3 02:57:41 10° NNE 03:02:48 61° ESE 03:05:36 26° S
Cosmos 2058 Rocket 4.2 03:01:36 26° WSW 03:03:00 31° WNW 03:07:00 10° N
OPS 8737 4.4 03:04:25 51° WSW 03:05:00 66° NW 03:08:20 10° NE
Cosmos 2034 Rocket 4.2 03:01:30 22° S 03:05:36 65° E 03:11:44 10° NNE
BREEZE-M DEB (TANK) 3.6 03:00:14 10° WNW 03:05:04 29° WSW 03:05:04 29° WSW
NPP 3.7 03:00:52 10° NNE 03:06:17 75° ESE 03:09:14 28° S
Cosmos 2298 Rocket 4.2 03:01:56 10° NNW 03:07:05 52° WSW 03:09:22 31° SSW
Nadezhda 4 Rocket 4.4 03:01:10 10° N 03:07:18 62° ENE 03:13:26 10° SSE
ATLAS CENTAUR R/B 2.3 03:05:51 31° S 03:07:59 51° ESE 03:12:48 10° NE
PSLV R/B 4.1 03:03:46 10° N 03:08:06 52° WNW 03:09:53 32° SW
Meteor 2-5 Rocket 3.8 03:02:18 10° NNW 03:08:11 75° W 03:11:52 24° S
Cosmos 1943 Rocket 4.1 03:04:51 10° W 03:09:04 21° NW 03:13:20 10° N
Cosmos 2297 Rocket 2.2 03:03:52 10° NW 03:09:25 59° WSW 03:12:50 23° S
Cosmos 1378 4.4 03:05:55 10° N 03:09:31 40° ENE 03:12:32 14° SE
Lacrosse 5 3.5 03:06:31 10° WNW 03:11:11 34° N 03:15:51 10° ENE
Cosmos 405 Rocket 2.9 03:07:57 10° NNW 03:12:00 61° W 03:13:18 38° SSW
Cosmos 2278 3.7 03:09:29 30° SSW 03:12:24 85° WNW 03:18:08 10° NNE
Cosmos 2369 3.7 03:11:33 30° SSW 03:14:31 89° ESE 03:20:14 10° NNE
Landsat 4 4.2 03:15:28 38° SW 03:16:14 43° W 03:19:56 10° NNW
SeaSat 1 3.4 03:17:34 26° SW 03:18:19 28° WSW 03:22:33 10° NW
Cosmos 990 Rocket 3.9 03:13:45 10° NNW 03:19:02 83° WSW 03:23:40 14° SSE
SL-16 R/B 3.0 03:14:54 10° SSE 03:20:58 62° ENE 03:27:03 10° N
Cosmos 1461 4.1 03:17:01 10° NNW 03:21:05 43° NE 03:24:58 10° ESE
AQUA 3.8 03:19:13 10° NNE 03:24:01 90° WSW 03:26:39 27° SSW
ERS-2 2.6 03:20:30 10° NNE 03:24:11 56° ESE 03:26:03 26° S
Cosmos 468 Rocket 3.9 03:23:55 28° SSW 03:26:45 88° WNW 03:31:56 10° NNE
Cosmos 1766 4.0 03:25:21 20° SSE 03:27:49 48° E 03:31:37 10° NNE
NOSS 2-1 (D) 3.4 03:30:11 31° SW 03:32:06 85° SE 03:36:52 10° NE
NOSS 2-1 (C) 3.4 03:31:34 30° SW 03:33:31 85° SE 03:38:18 10° NE
Lacrosse 5 rocket 3.4 03:31:12 10° NW 03:34:19 25° N 03:37:24 10° ENE
Okean 3 Rocket 3.8 03:32:06 10° NNW 03:36:24 51° W 03:38:36 26° SSW
Cosmos 2263 Rocket 4.4 03:35:29 10° NNW 03:40:16 28° NE 03:45:00 10° ESE
CZ-3A R/B 3.9 03:32:26 19° SSW 03:41:07 52° SE 03:45:42 10° ENE
Cosmos 1437 4.4 03:38:43 10° N 03:41:50 35° ENE 03:44:56 10° SE
BREEZE-M DEB (TANK) 2.0 03:41:26 34° SW 03:42:13 47° S 03:45:31 10° ESE
Meteor 2-12 Rocket 4.4 03:40:16 17° S 03:45:05 84° E 03:51:12 10° N
Cosmos 1441 Rocket 3.2 03:41:18 10° NNW 03:45:19 86° WSW 03:48:40 14° S
Meteor 1-24 Rocket 3.8 03:40:08 10° NNW 03:45:47 64° W 03:50:47 14° S
NOSS 2-1 (E) 3.6 03:46:13 24° SW 03:48:39 79° NW 03:53:37 10° NE
Cosmos 1464 Rocket 4.4 03:44:55 21° SW 03:49:03 51° WNW 03:55:16 10° N
IRAS Rocket 4.4 03:44:43 10° NNE 03:50:20 69° WNW 03:54:24 19° SSW
Cosmos 1656 3.7 03:46:36 21° SSW 03:50:30 85° WNW 03:56:12 10° NNE
Cosmos 1076 Rocket 3.4 03:47:10 10° NNW 03:51:30 73° W 03:55:02 15° S
Meteor 1-22 Rocket 4.4 03:47:55 17° SSW 03:52:45 86° W 03:58:54 10° NNE
Cosmos 1707 3.9 03:49:49 10° NNW 03:53:13 28° W 03:54:36 22° SW
SL-24 R/B 4.2 03:49:17 12° S 03:53:42 69° WSW 03:58:08 10° NNW
IRS-1C 4.3 03:49:31 10° N 03:54:49 64° WNW 03:58:41 19° SSW
EO 1 Del DPAF 3.4 03:51:04 10° SSE 03:54:56 77° ENE 03:58:50 10° N
CZ-2D R/B 2.7 03:49:39 10° NNE 03:55:04 59° E 04:00:23 10° S
Cosmos 1125 Rocket 3.5 03:50:14 10° NNW 03:55:29 88° ENE 04:00:42 10° SSE
Cosmos 1805 4.2 03:53:07 10° SSE 03:56:50 44° E 04:00:35 10° NNE
Cosmos 841 Rocket 3.6 03:53:15 18° SSW 03:57:16 77° ESE 04:02:34 10° NNE
Geosat 4.0 03:52:44 10° NNE 03:57:48 85° WNW 04:01:32 18° SW
Cosmos 1092 Rocket 4.0 03:52:13 10° NNW 03:58:31 79° W 04:04:50 10° S
Cosmos 1937 Rocket 4.4 03:54:05 10° NW 03:58:33 30° W 04:01:22 18° SSW
SL-08 R/B 4.5 03:57:16 20° SW 03:59:08 25° W 04:02:59 10° NW
NOSS 3-4 (A) 4.3 03:53:00 10° NW 03:59:18 38° WSW 04:05:56 10° S
Cosmos 1758 4.0 03:55:39 11° S 03:59:22 52° E 04:03:16 10° NNE
NOSS 3-4 (C) 4.3 03:53:06 10° NW 03:59:28 38° WSW 04:06:08 10° S
Cosmos 2227 4.2 03:55:11 10° NNW 04:00:59 82° WSW 04:06:45 10° SSE
USA 161 2.1 04:00:42 28° SW 04:01:38 36° W 04:04:14 10° NNW
Cosmos 1763 Rocket 3.5 03:58:16 18° SSW 04:02:12 88° WNW 04:07:25 10° NNE
Cosmos 1953 2.8 03:59:22 12° S 04:03:05 60° E 04:07:07 10° NNE
UNK 3.7 03:58:58 10° S 04:03:38 73° WSW 04:08:21 10° NNW
Cosmos 1743 Rocket 3.7 04:03:49 10° N 04:08:11 78° E 04:12:32 10° SSE
NOSS 7 (D) 4.4 04:06:19 21° SW 04:08:25 83° SE 04:11:58 10° NE
In-Cosmos 22 4.0 04:07:05 10° NNW 04:12:22 76° W 04:17:40 10° S
ARIANE 5 R/B 2.5 04:10:30 10° NNE 04:15:39 76° WNW 04:20:23 12° SSW
GEOS 3 Rocket 3.7 04:12:57 10° SSE 04:18:04 57° SW 04:23:10 10° NW
CZ-2C R/B 4.3 04:15:03 10° SSE 04:19:38 62° ENE 04:24:11 10° N
Cosmos 1697 Rocket 2.8 04:16:33 15° SW 04:21:17 68° WNW 04:26:58 10° NNE
USA 234 4.3 04:15:08 10° E 04:21:22 48° N 04:27:36 10° WNW
Abrixas 4.0 04:21:19 18° SW 04:21:36 18° SSW 04:23:49 10° SSE
Okean O Rocket 2.9 04:17:30 10° NNE 04:21:38 38° E 04:25:46 10° SSE
Cosmos 1674 3.4 04:18:25 10° N 04:22:10 56° ENE 04:25:51 10° SSE
Cosmos-2242 3.0 04:20:15 11° SSW 04:24:24 80° W 04:28:42 10° N
ADEOS 4.2 04:21:20 10° N 04:26:16 43° WNW 04:30:42 12° SW
Cosmos 540 Rocket 4.1 04:21:14 10° S 04:26:16 56° ESE 04:31:20 10° NNE
Cosmos 1408 Rocket 4.4 04:24:41 10° NNW 04:28:38 33° W 04:32:24 11° SSW
Meteor 1-21 Rocket 4.4 04:23:59 10° NNW 04:29:53 69° W 04:35:46 10° S
Cosmos 1980 Rocket 2.2 04:24:57 12° SSW 04:30:14 88° WNW 04:35:58 10° NNE
Resurs 1-4 Rocket 2.1 04:25:10 10° NNE 04:30:26 74° WNW 04:35:41 10° SSW
Cosmos 1766 Rocket 4.4 04:29:22 10° NNW 04:33:19 32° W 04:37:16 10° SSW
Cosmos 2142 Rocket 4.5 04:28:09 10° SSW 04:34:17 77° W 04:40:27 10° N
BREEZE-M DEB (TANK) 2.3 04:29:40 10° WSW 04:34:17 70° S 04:36:35 10° E
MOS 1-B 4.4 04:28:49 10° NNE 04:34:40 88° WNW 04:40:29 10° SSW
RESURS DK-1 2.4 04:33:03 10° NW 04:37:08 57° WSW 04:41:11 10° SSE
Cosmos 2322 Rocket 2.9 04:37:27 10° S 04:42:52 51° ESE 04:48:18 10° NE
Cosmos 2279 Rocket 4.2 04:37:22 10° S 04:43:38 81° E 04:49:55 10° N
Milstar 3 Cent rocket 4.3 04:44:32 10° S 04:45:35 10° S 04:46:42 10° SSE
IRS-1D 4.0 04:41:19 10° N 04:46:03 45° WNW 04:50:47 10° SW
ATLAS CENTAUR R/B 2.9 04:42:38 10° WSW 04:47:18 36° NW 04:51:51 10° NNE
Thor Agena Rocket 3.7 04:43:04 10° SSE 04:48:07 80° ENE 04:53:11 10° NNW
Cosmos 1470 2.9 04:50:39 10° S 04:54:36 83° E 04:58:37 10° NNE
Lacrosse 5 3.0 04:50:06 10° NW 04:55:03 47° NNE 04:59:58 10° E
CZ-2D R/B 3.6 04:50:53 10° N 04:55:13 70° WNW 04:59:37 10° SSW
ERS-2 4.2 04:55:20 10° NNW 04:57:35 15° WNW 04:59:50 10° W
PSLV R/B 3.8 04:54:53 10° NNE 04:58:47 89° W 05:02:33 10° SSW
Cosmos 1842 Rocket 3.7 04:55:05 10° SSW 04:59:33 70° WNW 05:04:03 10° N
Cosmos 1461 3.8 04:56:35 10° WNW 05:00:05 27° WSW 05:03:29 10° S
Cosmos 1805 Rocket 4.3 04:59:29 10° N 05:03:49 59° ENE 05:08:07 10° SSE
SL-16 R/B 3.5 04:59:57 10° SSW 05:05:03 27° W 05:10:09 10° NW
MOZ.5/SAFIR/RUBIN 5/SL-8 3.9 05:01:00 10° S 05:05:38 57° W 05:10:16 10° NNW
Cosmos 2266 Rocket 4.3 04:59:34 10° N 05:05:43 74° E 05:11:56 10° SSE
Cosmos 1655 Rocket 4.4 05:00:09 10° NNW 05:06:16 49° W 05:12:21 10° SSW
